Regional Weather Roundup
Issued by NWS

Home | Current Version | Previous Version | Graphics & Text | Print | Product List | Glossary On
Versions: 1 2 3 4 5 6 7 8 9 10 11 12 13 14 15 16 17 18 19 20 21 22 23 24 25 26 27 28 29 30 31 32 33 34 35 36 37 38 39 40 41 42 43 44 45 46 47 48 49 50
000
ASUS43 KLSX 262059
RWRMO

WEATHER SUMMARY FOR MISSOURI
NATIONAL WEATHER SERVICE SPRINGFIELD MO
400 PM CDT TUE MAY 26 2015

NOTE: "FAIR" INDICATES FEW OR NO CLOUDS BELOW 12,000 FEET WITH NO
       SIGNIFICANT WEATHER AND/OR OBSTRUCTIONS TO VISIBILITY.
       CURRENT SKY AND/OR WEATHER CONDITIONS ARE NOT AVAILABLE FOR
       CHILLICOTHE AND FARMINGTON.

MOZ001>031-035>038-043-044-053-054-262200-
...NORTHERN AND WESTERN MISSOURI...

CITY           SKY/WX    TMP DP  RH WIND       PRES   REMARKS
KANSAS CTY INT MOSUNNY   76  60  57 W20G30    29.88R
KANSAS C DTWN  SUNNY     79  57  46 W22G28    29.86F
LEE`S SUMMIT   MOSUNNY   78  57  48 W18G30    29.89R
ST JOSEPH      MOSUNNY   76  63  64 SW15      29.85S
KIRKSVILLE     PTSUNNY   76  63  64 SW15G24   29.84F

$$
MOZ066>068-077>081-088>096-101>105-262200-
...SOUTHWEST MISSOURI...

CITY           SKY/WX    TMP DP  RH WIND       PRES   REMARKS
SPRINGFIELD    SUNNY     78  61  55 W9        29.98F
JOPLIN         SUNNY     78  63  59 S13G21    29.97F

$$
MOZ032>034-039>042-045>050-055>058-069>072-262200-
...CENTRAL MISSOURI...

CITY           SKY/WX    TMP DP  RH WIND       PRES   REMARKS
COLUMBIA       PTSUNNY   77  60  55 SW15G26   29.91S
JEFFERSON CITY MOSUNNY   78  59  51 SW14G22   29.91S
ROLLA          MOSUNNY   75  60  59 SW17G23   29.94F
SEDALIA        MOSUNNY   78  61  55 SW23      29.92S
OSAGE BEACH    PTSUNNY   77  57  50 SW13      29.94F

$$
MOZ051-052-059>065-262200-
...EAST CENTRAL MISSOURI...

CITY           SKY/WX    TMP DP  RH WIND       PRES   REMARKS
ST LOUIS INTL  MOSUNNY   78  60  53 SW18G26   29.92S
SPIRIT OF STL  MOSUNNY   77  63  61 SW13      29.90F
ST CHARLES     PTSUNNY   78  63  59 S13       29.90S

$$
MOZ072>076-082>087-097>100-106>115-262200-
...SOUTH CENTRAL AND SOUTHEAST MISSOURI...

CITY           SKY/WX    TMP DP  RH WIND       PRES   REMARKS
CAPE GIRARDEAU PTSUNNY   76  64  66 SW16G24   29.99S
FARMINGTON     MOSUNNY   75  59  57 W13G18    30.01F
POPLAR BLUFF   PTSUNNY   75  64  68 SW13G21   29.99S
WEST PLAINS    MOSUNNY   74  60  61 SW8       30.01F

$$


USA.gov is the U.S. government's official web portal to all federal, state and local government web resources and services.